Regional Weather Roundup
Issued by NWS

Home | Current Version | Previous Version | Graphics & Text | Print | Product List | Glossary On
Versions: 1 2 3 4 5 6 7 8 9 10 11 12 13 14 15 16 17 18 19 20 21 22 23 24 25 26 27 28 29 30 31 32 33 34 35 36 37 38 39 40 41 42 43 44 45 46 47 48 49 50
000
ASUS43 KOAX 210502
RWRNE

WEATHER ROUNDUP FOR NEBRASKA
NATIONAL WEATHER SERVICE OMAHA NE
1200 AM CDT THU AUG 21 2014

NOTES: SATELLITE DATA IS BEING USED TO AUGMENT CLOUD COVER ABOVE
       12000 FEET.
       "FAIR" INDICATES FEW OR NO CLOUDS BELOW 12,000 FEET WITH NO
       SIGNIFICANT WEATHER AND/OR OBSTRUCTIONS TO VISIBILITY.

  * THESE STATIONS DO NOT REPORT WEATHER SUCH AS RAIN...SNOW OR FOG.

NEZ001>004-019>022-054>056-210600-
NEBRASKA PANHANDLE

CITY           SKY/WX    TMP DP  RH WIND       PRES   REMARKS
SCOTTSBLUFF    MOCLDY    74  52  46 S9        29.91R
ALLIANCE       PTCLDY    69  55  60 SW10      29.87R
CHADRON        CLEAR     65  51  60 W5        29.83R
KIMBALL        CLOUDY    62  58  84 S5        29.97F
SIDNEY         LGT RAIN  65  59  81 NW13      29.95F
$$

NEZ057>060-069>072-079>082-210600-
SOUTHWEST NEBRASKA

CITY           SKY/WX    TMP DP  RH WIND       PRES   REMARKS
NORTH PLATTE   CLOUDY    71  65  81 E9        29.79F
IMPERIAL       MOCLDY    70  65  84 CALM      29.83R
LEXINGTON      TSTM      73  66  80 SW22G33   29.88R
MCCOOK         CLOUDY    76  61  59 NE9       29.80R
OGALLALA       MOCLDY    66  61  84 CALM      29.84R
$$

NEZ005>010-023>029-035>040-094-210600-
NORTH CENTRAL NEBRASKA

CITY           SKY/WX    TMP DP  RH WIND       PRES   REMARKS
VALENTINE      PTCLDY    73  63  70 S10       29.74S
AINSWORTH      PTCLDY    75  70  85 S9        29.75R
BROKEN BOW     MOCLDY    72  67  84 W3        29.78R
O`NEILL        PTCLDY    78  73  85 S9        29.74S
ORD            LGT RAIN  79  72  79 S10       29.73F
THEDFORD       PTCLDY    77  61  56 S10       29.79S
$$

NEZ041-046>049-061>064-073>077-083>087-210600-
SOUTH CENTRAL NEBRASKA

CITY           SKY/WX    TMP DP  RH WIND       PRES   REMARKS
GRAND ISLAND   CLOUDY    80  69  69 S13       29.77R
AURORA         CLOUDY    81  71  72 S12G18    29.77R
HASTINGS       CLOUDY    80  65  59 S10       29.79R
HEBRON         MOCLDY    80  65  59 S10       29.78S
HOLDREGE       RAIN      74  62  66 SE9       29.80R
KEARNEY *      MOCLDY    75  68  78 S8        29.78F
$$

NEZ011>018-030>034-042>045-210600-
NORTHEAST NEBRASKA

CITY           SKY/WX    TMP DP  RH WIND       PRES   REMARKS
NORFOLK        CLEAR     80  69  69 SE13      29.74S
ALBION         CLOUDY    76  70  81 SE6       29.75S
BLAIR          CLEAR     80  72  75 SE10      29.78F
COLUMBUS *     MOCLDY    66  66 100 S12       29.76S
FREMONT        CLEAR     80  72  75 SE9       29.77S
TEKAMAH        PTCLDY    78  73  84 SE10      29.76S
WAYNE          PTCLDY    76  73  91 SE10      29.75S
$$

NEZ050>053-065>068-078-088>093-210600-
SOUTHEAST NEBRASKA

CITY           SKY/WX    TMP DP  RH WIND       PRES   REMARKS
LINCOLN        MOCLDY    82  69  64 S13       29.77S
OMAHA EPPLEY   CLEAR     80  72  76 SE13      29.78S
BEATRICE       MOCLDY    82  70  68 S13       29.80R
FALLS CITY     PTCLDY    81  70  69 S10       29.82R
NEBRASKA CITY  PTCLDY    78  72  80 S10       29.81S
PLATTSMOUTH    CLEAR     79  73  80 SE10      29.80S
$$

NEZ044-045-051>053-067-210600-
OMAHA AREA

CITY           SKY/WX    TMP DP  RH WIND       PRES   REMARKS
OMAHA EPPLEY   CLEAR     80  72  76 SE13      29.78S
BLAIR          CLEAR     80  72  75 SE10      29.78F
FREMONT        CLEAR     80  72  75 SE9       29.77S
MILLARD        CLEAR     80  73  81 SE6       29.78S
OFFUTT AFB     CLEAR     78  77  99 E8        29.79S
PLATTSMOUTH    CLEAR     79  73  80 SE10      29.80S
WAHOO          FAIR      76  72  85 SE7       29.77S
$$


USA.gov is the U.S. government's official web portal to all federal, state and local government web resources and services.